SCP
0 0 0 0 0 0 0 0 0 0 0 -0 0 -0 -0 0 0 0 0 0 -0 0 0 0 -0 -0 0 0 0 0 0 0 0 0 0 0 0 -0 -0 -0 -0 -0 0 0 -0 -0 -0 -0 -0
0 0 0 0 0 0 0 0 0 0 0 -0 -0 0 0 0 0 0 0 0 -0 0 0 0 -0 -0 0 0 0 0 0 0 0 0 0 0 -0 -0 -0 -0 -0 -0 -0 0 -0 -0 -0 -0 -0
0 0 0 0 0 0 0 0 0 0 0 0 0 0 0 0 0 0 0 0 0 0 0 0 0 -0 0 0 0 0 0 0 0 0 0 0 -0 -0 -0 -0 -0 -0 -0 -0 0 0 0 0 0
0 0 0 0 0 0 0 0 0 0 0 0 0 0 0 0 -0 0 -0 -0 0 0 0 0 0 0 0 0 0 0 0 0 0 0 0 0 0 -0 -0 -0 -0 -0 -0 -0 0 0 0 -0 -0
0 0 0 0 0 0 -0 0 -0 -0 0 0 0 0 0 0 -0 -0 -0 0 0 0 0 0 0 0 0 0 0 0 0 0 0 0 0 0 0 -0 -0 -0 -0 -0 -0 -0 -0 0 -0 -0 -0
0 0 0 0 0 0 -0 -0 -0 0 0 0 0 0 0 0 0 0 0 0 0 0 0 0 0 0 0 0 0 0 0 0 0 0 0 -0 -0 -0 -0 -0 -0 -0 -0 -0 -0 -0 -0 -0 -0
0 0 0 0 0 0 0 0 0 0 0 0 0 0 0 0 0 0 0 0 0 0 0 0 0 0 0 0 0 0 0 0 0 -0 -0 -0 -0 -0 -0 -0 -0 -0 -0 -0 -0 -0 -0 -0 -0
0 0 0 0 0 0 0 0 0 0 0 0 0 0 0 0 0 0 0 0 0 0 0 0 0 0 0 0 0 0 0 0 -0 0 0 -0 -0 -0 -0 -0 -0 -0 -0 -0 -0 0 -0 -0 -0
0 0 0 0 0 0 0 0 0 0 0 0 0 0 0 0 0 0 0 0 0 0 0 0 0 0 0 0 0 0 0 0 0 0 -0 -0 0 -0 -0 -0 -0 -0 -0 -0 0 0 0 0 0
0 0 0 0 0 0 0 0 0 0 0 0 0 0 0 0 0 0 0 0 0 0 0 0 0 0 0 0 0 0 0 0 0 0 0 0 0 0 -0 -0 -0 -0 -0 0 0 0 0 0 0
0 0 0 0 0 0 0 0 0 0 0 -0 -0 -0 0 0 0 0 0 0 0 0 0 0 0 0 0 0 0 0 0 0 0 0 0 0 0 0 0 0 0 0 0 0 0 0 0 0 0
0 0 0 0 0 0 0 0 0 0 0 -0 0 0 -0 -0 0 0 0 0 0 0 0 0 0 0 0 0 0 0 0 0 0 0 0 0 0 0 0 0 0 0 0 0 0 0 0 0 0
0 0 0 0 0 0 0 0 0 0 0 0 0 0 0 -0 -0 -0 -0 -0 0 0 0 0 0 0 0 0 0 0 0 0 0 0 0 0 0 0 0 0 0 0 0 0 0 0 0 0 0
0 0 0 0 0 0 0 0 0 0 0 0 0 0 0 0 0 0 0 -0 -0 -0 -0 -0 0 0 0 0 0 0 0 0 0 0 0 0 0 0 0 0 0 0 0 0 0 0 0 0 0
0 0 0 0 0 0 0 0 0 0 0 0 0 0 0 0 0 0 0 0 0 0 -0 -0 -0 0 0 0 0 0 0 0 0 0 0 0 0 0 0 0 0 0 0 0 0 0 0 0 0
0 0 0 0 0 0 0 0 0 0 0 0 0 0 0 0 0 0 0 0 0 0 0 0 0 0 0 0 0 0 0 0 0 0 0 0 0 0 0 0 0 0 0 0 0 0 0 0 0
0 0 0 0 0 0 0 0 0 0 0 0 0 0 0 0 0 0 0 0 0 0 0 0 0 0 0 0 0 0 0 0 0 0 0 0 0 0 0 0 0 0 0 0 0 0 0 0 0
0 0 0 0 0 0 0 0 0 0 0 0 0 0 0 0 0 0 0 0 0 0 0 0 0 0 0 0 0 0 0 0 0 0 0 0 0 0 0 0 0 0 0 0 0 0 0 0 0
0 0 0 0 0 0 0 0 0 0 0 0 0 0 0 0 0 0 0 0 0 0 0 0 0 0 0 0 0 0 0 0 0 0 0 0 0 0 0 0 0 0 0 0 0 0 0 0 0
0 0 0 0 0 0 0 0 0 0 0 0 0 0 0 0 0 0 0 0 0 0 0 0 0 0 0 0 0 0 0 0 0 0 0 0 0 0 0 0 0 0 0 0 0 0 0 0 0
0 0 0 0 0 0 0 0 0 0 0 0 0 0 0 0 0 0 0 0 0 0 0 0 0 0 0 0 0 0 0 0 0 0 0 0 0 0 0 0 0 0 0 0 0 0 0 0 0
0 0 0 0 0 0 0 0 0 0 0 0 0 0 0 0 0 0 0 0 0 0 0 0 0 0 0 0 0 0 0 0 0 0 0 0 0 0 0 0 0 0 0 0 0 0 0 0 0
0 0 0 0 0 0 0 0 0 0 0 0 0 0 0 0 0 0 0 0 0 0 0 0 0 0 0 0 0 0 0 0 0 0 0 0 0 0 0 0 0 0 0 0 0 0 0 0 0
0 0 0 0 0 0 0 0 0 0 0 0 0 0 0 0 0 0 0 0 0 0 0 0 0 0 0 0 0 0 0 0 0 0 0 0 0 0 0 0 0 0 0 0 0 0 0 0 0
0 0 0 0 0 0 0 0 0 0 0 0 0 0 0 0 0 0 0 0 0 0 0 0 0 0 0 0 0 0 0 0 0 0 0 0 0 0 0 0 0 0 0 0 0 0 0 0 0
0 0 0 0 0 0 0 0 0 0 0 0 0 0 0 0 0 0 0 0 0 0 0 0 0 0 0 0 0 0 0 0 0 0 0 0 0 0 0 0 0 0 0 0 0 0 0 0 0
0 0 0 0 0 0 0 0 0 0 0 0 0 0 0 0 0 0 0 0 0 0 0 0 0 0 0 0 0 0 0 0 0 0 0 0 0 0 0 0 0 0 0 0 0 0 0 0 0
0 0 0 0 0 0 0 0 0 0 0 0 0 0 0 0 0 0 0 0 0 0 0 0 0 0 0 0 0 0 0 0 0 0 0 0 0 0 0 0 0 0 0 0 0 0 0 0 0
0 0 0 0 0 0 0 0 0 0 0 0 0 0 0 0 0 0 0 0 0 0 0 0 0 0 0 0 0 0 0 0 0 0 0 0 0 0 0 0 0 0 0 0 0 0 0 0 0
0 0 0 0 0 0 0 0 0 0 0 0 0 0 0 0 0 0 0 0 0 0 0 0 0 0 0 0 0 0 0 0 0 0 0 0 0 0 0 0 0 0 0 0 0 0 0 0 0
Wind_Speed_500mb
11 12 6 4 7 8 5 7 8 3 9 11 28 32 19 12 6 6 31 24 22 31 35 34 35 35 33 30 35 31 26 19 11 13 15 15 16 17 16 16 15 14 14 15 15 15 15 15 16
3 4 4 6 8 4 6 4 4 4 24 38 33 26 19 7 9 25 38 25 17 27 34 32 32 33 30 29 35 36 29 18 13 14 14 14 14 14 14 13 13 12 12 12 12 12 12 12 12
2 2 1 8 5 7 7 3 6 6 12 13 13 24 10 5 18 28 15 34 22 28 32 30 31 31 31 31 30 30 23 16 14 13 12 11 12 12 11 11 10 10 9 8 9 9 10 10 10
5 4 3 7 6 0 12 2 8 7 18 14 34 15 14 7 31 12 28 28 23 28 30 29 31 31 31 28 27 23 18 15 12 10 9 9 9 8 8 8 8 8 9 9 10 11 12 13 13
6 2 6 2 5 3 6 33 35 6 10 11 11 10 10 13 12 18 36 26 20 31 30 28 29 29 29 26 25 19 12 10 8 5 4 5 5 5 6 7 9 10 12 13 14 14 15 15 17
3 4 6 1 5 6 5 20 16 5 17 26 24 13 9 22 25 37 27 22 14 27 31 27 28 28 26 24 22 15 12 8 4 2 1 0 3 5 8 10 12 13 15 17 18 19 19 19 19
5 6 6 6 3 4 2 13 19 14 10 12 25 10 17 32 39 29 26 22 20 21 20 25 27 27 26 24 21 17 13 9 5 5 6 7 10 11 11 12 13 14 16 19 22 23 22 22 22
3 8 4 6 6 5 5 9 24 14 10 18 9 14 15 41 44 40 27 17 17 15 14 22 22 21 20 20 20 17 14 10 9 10 11 11 11 12 14 16 17 17 17 21 24 24 24 23 25
1 7 3 2 7 5 2 5 8 14 22 16 10 20 34 48 45 42 34 27 24 19 13 24 21 19 17 15 14 13 11 11 12 13 10 11 12 14 16 17 19 20 21 25 27 28 29 29 29
7 6 6 5 4 1 2 2 17 10 21 17 34 37 44 47 47 47 43 35 27 19 17 17 19 18 17 15 15 13 13 14 15 16 15 14 15 16 20 21 24 26 26 28 28 29 31 34 34
8 9 6 4 9 7 4 9 4 30 6 21 36 41 36 43 47 50 39 31 23 16 14 16 14 13 13 14 12 10 9 12 15 15 16 17 19 20 23 26 28 30 30 31 31 32 33 34 36
4 4 3 8 3 7 4 6 12 8 6 20 31 33 30 28 43 45 43 32 30 25 16 12 10 11 13 14 14 14 15 17 18 18 19 22 24 26 28 30 33 34 33 34 34 36 37 40 40
3 2 3 7 15 8 17 10 14 25 34 36 34 26 29 25 25 24 21 20 29 27 19 16 15 14 16 18 19 20 20 21 18 19 21 25 29 31 31 32 34 35 36 38 40 41 43 45 47
1 8 6 6 5 10 13 9 7 16 39 43 40 33 28 25 19 17 14 11 16 12 12 20 18 18 19 22 23 21 19 19 22 21 24 27 30 33 34 34 35 38 40 41 44 45 47 50 50
5 7 6 3 1 5 6 10 12 13 34 50 51 46 41 36 27 25 16 12 14 14 15 16 10 10 13 17 24 22 22 24 23 24 25 28 30 34 35 36 39 37 38 41 44 46 48 51 51
7 10 8 9 3 2 4 4 16 10 59 54 54 52 47 38 30 23 15 14 11 14 19 23 18 14 5 4 7 9 20 30 20 22 24 26 30 30 34 35 37 38 42 44 45 46 48 51 53
1 8 8 5 16 2 8 6 28 35 63 47 49 42 41 36 27 19 10 8 12 12 13 17 21 22 19 11 0 3 6 3 18 19 18 16 19 21 23 26 30 28 33 36 41 44 46 52 53
26 27 9 10 9 32 28 14 19 41 59 48 46 41 37 33 29 21 14 10 7 9 15 14 14 16 13 10 4 2 4 6 9 11 13 18 23 26 28 28 28 30 28 27 29 32 35 39 42
18 33 21 5 9 24 14 20 16 29 45 44 40 39 38 35 25 22 20 20 18 14 8 12 17 13 10 15 14 7 7 3 5 10 13 16 21 25 23 22 25 31 37 39 38 37 39 45 48
22 30 18 12 16 16 12 20 17 28 19 29 35 36 35 31 28 29 28 27 27 28 26 21 15 10 9 15 15 6 3 6 8 11 15 18 17 22 24 28 32 30 29 27 30 35 39 37 39
9 26 13 18 18 14 18 5 1 14 27 32 32 32 33 32 35 34 35 38 38 37 37 34 31 27 19 15 18 9 4 2 1 5 8 14 16 17 17 17 19 22 25 29 32 35 40 42 43
22 13 23 36 31 10 21 7 14 7 10 18 23 28 29 32 35 38 40 42 45 46 44 42 40 39 38 30 23 22 24 23 24 21 18 16 15 17 18 20 23 26 28 30 35 38 40 43 46
10 18 24 18 8 17 21 5 4 28 15 16 23 28 28 31 34 39 41 42 43 41 41 40 38 38 36 32 29 26 25 25 20 16 14 16 19 22 25 27 30 33 35 37 39 42 45 48 49
18 20 18 7 5 10 24 14 10 20 24 22 24 32 33 33 35 38 39 38 39 38 37 34 31 34 30 27 25 24 21 19 15 17 20 24 28 30 32 36 38 40 41 43 45 44 45 47 49
18 33 5 9 9 8 20 10 6 15 29 35 41 40 36 36 36 38 37 36 35 33 32 31 27 29 26 22 20 21 22 22 24 27 32 34 36 38 39 41 43 44 44 45 46 47 47 48 50
32 13 10 13 12 8 5 11 5 5 33 46 49 47 40 36 34 33 34 33 32 29 26 24 22 22 20 19 20 21 22 25 28 30 33 35 38 41 42 43 44 45 47 48 50 52 53 53 53
11 11 6 11 7 6 8 4 10 9 17 38 46 45 40 36 32 29 28 26 24 23 21 19 18 19 20 22 23 24 26 27 30 31 34 35 36 37 41 42 45 48 49 52 52 56 58 58 58
9 17 7 4 13 7 4 6 7 22 26 23 33 45 41 36 33 31 27 23 20 18 17 15 17 20 22 23 25 28 30 31 31 32 33 35 37 38 39 42 43 45 48 51 51 51 55 57 57
7 10 9 7 2 8 9 10 11 37 33 31 38 50 47 40 35 29 24 20 15 12 12 16 19 20 23 24 26 27 27 27 28 29 30 32 35 36 38 40 42 44 47 48 51 51 53 55 55
2 10 9 7 6 3 3 7 10 29 39 44 47 50 43 38 34 27 20 13 7 7 12 17 19 20 21 23 23 24 23 24 27 28 28 29 31 35 35 36 39 40 42 45 47 48 48 50 52
Wind_Direction_500mb
112 145 153 93 57 59 286 318 339 124 52 63 88 92 98 63 66 148 136 139 150 159 154 155 162 163 161 145 137 132 146 165 139 110 104 101 98 95 91 88 81 73 66 62 57 54 51 50 51
150 135 133 93 89 59 271 330 337 5 129 106 86 89 56 56 76 134 151 159 159 163 156 156 157 162 164 162 153 149 158 152 134 119 112 104 98 90 84 78 71 66 57 51 46 41 35 32 34
80 194 303 105 127 189 180 238 332 284 101 94 104 77 74 31 129 140 153 158 162 167 159 158 156 157 154 153 154 165 170 158 139 125 111 97 89 81 72 67 61 53 43 33 28 24 16 9 6
28 169 89 94 240 113 147 107 288 288 79 85 108 66 86 89 153 182 157 156 162 168 162 159 157 156 152 150 145 153 151 147 135 122 104 88 74 61 53 46 39 27 18 10 4 358 353 347 344
350 108 64 69 259 103 211 154 218 218 101 93 104 125 77 79 202 159 153 155 171 165 161 160 158 158 157 149 157 174 159 147 135 118 97 78 52 30 17 7 2 352 349 345 342 339 336 335 335
20 70 49 319 273 108 238 188 171 127 107 107 92 83 85 128 163 153 157 160 165 164 158 161 162 161 160 168 178 186 177 166 156 139 146 22 355 350 348 349 347 339 332 328 326 326 326 326 326
97 78 199 232 193 331 199 130 147 136 105 55 133 88 135 151 160 162 167 172 161 157 159 166 171 169 173 174 179 187 197 203 233 257 273 309 330 330 331 329 327 320 318 318 319 319 318 317 317
4 94 344 359 330 253 7 89 126 111 86 99 109 140 162 164 157 164 177 181 159 156 172 188 181 184 186 186 192 200 207 228 266 298 314 322 323 314 314 316 317 317 318 319 317 316 316 314 315
258 63 146 174 198 258 82 108 92 111 104 78 82 143 154 161 164 172 174 174 173 172 187 189 191 192 194 201 211 221 237 259 283 307 308 311 315 315 313 310 312 313 317 315 316 316 314 314 314
116 125 200 223 208 172 225 37 129 106 100 73 99 120 150 162 171 179 177 178 184 188 181 181 202 204 208 212 220 233 248 265 281 295 307 316 317 317 316 321 320 321 325 324 322 319 318 316 316
169 167 252 293 198 356 148 86 101 133 84 169 158 146 157 173 181 181 182 191 192 196 207 192 195 217 219 225 227 234 265 294 302 297 308 312 315 316 318 320 320 320 321 322 323 322 321 316 313
191 184 228 263 324 24 31 85 79 107 162 163 147 137 141 151 181 188 188 195 194 203 212 216 223 247 260 260 265 275 284 294 298 303 308 314 317 318 321 321 319 314 316 316 319 319 319 318 317
151 218 61 112 124 169 95 80 120 98 114 129 127 122 118 115 114 149 186 201 216 213 216 224 232 255 267 274 275 277 288 293 302 307 317 320 323 320 318 317 314 312 311 313 314 315 316 316 315
116 188 194 332 89 82 118 112 77 132 136 125 123 124 127 123 142 153 165 168 149 188 220 232 236 238 260 264 269 270 282 296 298 309 319 316 315 317 317 319 322 319 315 312 309 310 311 310 311
130 96 85 161 25 61 124 45 51 134 138 124 121 120 123 109 129 122 130 192 219 209 207 208 234 256 264 272 260 260 278 279 286 298 305 307 311 312 312 313 311 321 320 316 311 309 307 306 309
127 71 129 326 151 32 119 107 333 63 132 114 111 111 112 108 107 112 123 140 165 212 219 226 224 211 214 322 309 280 298 271 298 294 292 299 300 302 305 307 310 311 311 309 311 310 309 309 307
125 161 148 103 19 271 59 72 352 113 130 106 105 102 101 99 99 102 118 151 172 173 183 215 227 227 219 216 231 334 327 243 265 285 281 287 300 309 314 318 315 318 313 314 312 312 314 311 312
185 193 200 124 354 84 77 57 26 65 100 99 97 94 90 87 74 79 93 103 130 199 211 209 216 243 221 181 112 24 258 284 291 297 301 318 314 317 321 313 312 320 331 333 328 329 325 327 330
148 179 205 183 103 69 71 78 54 63 84 87 89 88 84 81 83 88 86 90 94 105 139 206 222 223 204 155 112 181 226 197 284 304 321 336 336 330 322 328 324 324 329 325 320 320 320 321 320
166 177 169 122 128 84 64 72 59 52 66 89 98 93 91 95 93 89 91 94 90 88 87 92 110 136 150 153 134 163 270 312 344 344 322 322 319 322 318 318 316 318 323 329 327 331 330 326 331
196 178 174 140 131 77 119 320 60 70 79 88 86 93 93 96 97 94 94 92 93 90 86 86 87 91 100 120 123 122 104 140 193 7 33 38 35 32 22 8 358 350 346 347 346 342 344 338 332
201 164 144 143 156 173 173 181 190 153 99 83 94 97 98 104 102 101 98 94 91 88 90 89 90 91 91 96 111 107 99 89 70 62 51 42 33 22 16 8 359 355 354 348 350 348 344 341 340
194 106 133 149 128 119 184 151 206 155 177 154 129 113 112 108 108 103 100 97 96 96 93 91 90 89 88 88 86 83 81 76 70 62 46 28 16 7 0 356 352 348 347 346 343 340 340 340 338
142 92 60 87 45 209 183 178 194 186 180 157 147 139 134 126 117 109 105 104 99 98 96 93 91 88 83 77 74 68 61 53 33 17 5 1 357 354 349 347 345 342 339 339 338 337 334 333 332
137 144 133 180 191 240 162 167 217 200 167 161 155 148 142 133 127 120 118 111 105 97 90 84 81 80 68 59 50 39 28 17 9 1 356 350 347 345 345 344 342 341 340 338 336 336 335 334 334
167 166 156 186 171 159 173 212 278 138 148 148 154 148 144 139 133 127 120 115 109 101 90 79 69 65 56 41 33 23 12 3 359 354 350 346 345 345 343 343 341 340 340 341 341 340 340 339 338
175 190 59 102 32 109 139 10 360 72 117 138 147 150 145 141 136 127 121 112 102 94 80 64 46 36 26 16 8 1 358 354 353 350 347 345 344 343 343 342 340 340 340 339 340 340 339 339 339
182 128 102 65 159 173 144 205 205 182 172 161 156 154 151 148 144 138 132 118 100 79 57 33 18 6 5 359 354 354 351 348 346 343 340 340 339 339 338 336 336 338 338 336 338 340 338 336 337
144 178 133 105 305 134 139 243 202 182 180 169 164 162 160 157 153 147 136 122 99 63 29 6 355 352 349 351 347 344 339 338 336 335 335 335 336 335 340 337 339 341 338 339 341 345 342 340 340
273 158 145 124 183 51 121 237 319 176 169 161 162 166 165 161 156 151 143 128 92 15 355 347 345 347 344 342 336 332 331 333 334 332 335 338 337 341 337 339 344 342 342 346 349 352 350 348 347
Wind_Speed_850mb
11 12 6 4 7 8 5 7 8 3 9 11 28 32 19 12 6 6 31 24 22 31 35 34 35 35 33 30 35 31 26 19 11 13 15 15 16 17 16 16 15 14 14 15 15 15 15 15 16
3 4 4 6 8 4 6 4 4 4 24 38 33 26 19 7 9 25 38 25 17 27 34 32 32 33 30 29 35 36 29 18 13 14 14 14 14 14 14 13 13 12 12 12 12 12 12 12 12
2 2 1 8 5 7 7 3 6 6 12 13 13 24 10 5 18 28 15 34 22 28 32 30 31 31 31 31 30 30 23 16 14 13 12 11 12 12 11 11 10 10 9 8 9 9 10 10 10
5 4 3 7 6 0 12 2 8 7 18 14 34 15 14 7 31 12 28 28 23 28 30 29 31 31 31 28 27 23 18 15 12 10 9 9 9 8 8 8 8 8 9 9 10 11 12 13 13
6 2 6 2 5 3 6 33 35 6 10 11 11 10 10 13 12 18 36 26 20 31 30 28 29 29 29 26 25 19 12 10 8 5 4 5 5 5 6 7 9 10 12 13 14 14 15 15 17
3 4 6 1 5 6 5 20 16 5 17 26 24 13 9 22 25 37 27 22 14 27 31 27 28 28 26 24 22 15 12 8 4 2 1 0 3 5 8 10 12 13 15 17 18 19 19 19 19
5 6 6 6 3 4 2 13 19 14 10 12 25 10 17 32 39 29 26 22 20 21 20 25 27 27 26 24 21 17 13 9 5 5 6 7 10 11 11 12 13 14 16 19 22 23 22 22 22
3 8 4 6 6 5 5 9 24 14 10 18 9 14 15 41 44 40 27 17 17 15 14 22 22 21 20 20 20 17 14 10 9 10 11 11 11 12 14 16 17 17 17 21 24 24 24 23 25
1 7 3 2 7 5 2 5 8 14 22 16 10 20 34 48 45 42 34 27 24 19 13 24 21 19 17 15 14 13 11 11 12 13 10 11 12 14 16 17 19 20 21 25 27 28 29 29 29
7 6 6 5 4 1 2 2 17 10 21 17 34 37 44 47 47 47 43 35 27 19 17 17 19 18 17 15 15 13 13 14 15 16 15 14 15 16 20 21 24 26 26 28 28 29 31 34 34
8 9 6 4 9 7 4 9 4 30 6 21 36 41 36 43 47 50 39 31 23 16 14 16 14 13 13 14 12 10 9 12 15 15 16 17 19 20 23 26 28 30 30 31 31 32 33 34 36
4 4 3 8 3 7 4 6 12 8 6 20 31 33 30 28 43 45 43 32 30 25 16 12 10 11 13 14 14 14 15 17 18 18 19 22 24 26 28 30 33 34 33 34 34 36 37 40 40
3 2 3 7 15 8 17 10 14 25 34 36 34 26 29 25 25 24 21 20 29 27 19 16 15 14 16 18 19 20 20 21 18 19 21 25 29 31 31 32 34 35 36 38 40 41 43 45 47
1 8 6 6 5 10 13 9 7 16 39 43 40 33 28 25 19 17 14 11 16 12 12 20 18 18 19 22 23 21 19 19 22 21 24 27 30 33 34 34 35 38 40 41 44 45 47 50 50
5 7 6 3 1 5 6 10 12 13 34 50 51 46 41 36 27 25 16 12 14 14 15 16 10 10 13 17 24 22 22 24 23 24 25 28 30 34 35 36 39 37 38 41 44 46 48 51 51
7 10 8 9 3 2 4 4 16 10 59 54 54 52 47 38 30 23 15 14 11 14 19 23 18 14 5 4 7 9 20 30 20 22 24 26 30 30 34 35 37 38 42 44 45 46 48 51 53
1 8 8 5 16 2 8 6 28 35 63 47 49 42 41 36 27 19 10 8 12 12 13 17 21 22 19 11 0 3 6 3 18 19 18 16 19 21 23 26 30 28 33 36 41 44 46 52 53
26 27 9 10 9 32 28 14 19 41 59 48 46 41 37 33 29 21 14 10 7 9 15 14 14 16 13 10 4 2 4 6 9 11 13 18 23 26 28 28 28 30 28 27 29 32 35 39 42
18 33 21 5 9 24 14 20 16 29 45 44 40 39 38 35 25 22 20 20 18 14 8 12 17 13 10 15 14 7 7 3 5 10 13 16 21 25 23 22 25 31 37 39 38 37 39 45 48
22 30 18 12 16 16 12 20 17 28 19 29 35 36 35 31 28 29 28 27 27 28 26 21 15 10 9 15 15 6 3 6 8 11 15 18 17 22 24 28 32 30 29 27 30 35 39 37 39
9 26 13 18 18 14 18 5 1 14 27 32 32 32 33 32 35 34 35 38 38 37 37 34 31 27 19 15 18 9 4 2 1 5 8 14 16 17 17 17 19 22 25 29 32 35 40 42 43
22 13 23 36 31 10 21 7 14 7 10 18 23 28 29 32 35 38 40 42 45 46 44 42 40 39 38 30 23 22 24 23 24 21 18 16 15 17 18 20 23 26 28 30 35 38 40 43 46
10 18 24 18 8 17 21 5 4 28 15 16 23 28 28 31 34 39 41 42 43 41 41 40 38 38 36 32 29 26 25 25 20 16 14 16 19 22 25 27 30 33 35 37 39 42 45 48 49
18 20 18 7 5 10 24 14 10 20 24 22 24 32 33 33 35 38 39 38 39 38 37 34 31 34 30 27 25 24 21 19 15 17 20 24 28 30 32 36 38 40 41 43 45 44 45 47 49
18 33 5 9 9 8 20 10 6 15 29 35 41 40 36 36 36 38 37 36 35 33 32 31 27 29 26 22 20 21 22 22 24 27 32 34 36 38 39 41 43 44 44 45 46 47 47 48 50
32 13 10 13 12 8 5 11 5 5 33 46 49 47 40 36 34 33 34 33 32 29 26 24 22 22 20 19 20 21 22 25 28 30 33 35 38 41 42 43 44 45 47 48 50 52 53 53 53
11 11 6 11 7 6 8 4 10 9 17 38 46 45 40 36 32 29 28 26 24 23 21 19 18 19 20 22 23 24 26 27 30 31 34 35 36 37 41 42 45 48 49 52 52 56 58 58 58
9 17 7 4 13 7 4 6 7 22 26 23 33 45 41 36 33 31 27 23 20 18 17 15 17 20 22 23 25 28 30 31 31 32 33 35 37 38 39 42 43 45 48 51 51 51 55 57 57
7 10 9 7 2 8 9 10 11 37 33 31 38 50 47 40 35 29 24 20 15 12 12 16 19 20 23 24 26 27 27 27 28 29 30 32 35 36 38 40 42 44 47 48 51 51 53 55 55
2 10 9 7 6 3 3 7 10 29 39 44 47 50 43 38 34 27 20 13 7 7 12 17 19 20 21 23 23 24 23 24 27 28 28 29 31 35 35 36 39 40 42 45 47 48 48 50 52
Wind_Direction_850mb
112 145 153 93 57 59 286 318 339 124 52 63 88 92 98 63 66 148 136 139 150 159 154 155 162 163 161 145 137 132 146 165 139 110 104 101 98 95 91 88 81 73 66 62 57 54 51 50 51
150 135 133 93 89 59 271 330 337 5 129 106 86 89 56 56 76 134 151 159 159 163 156 156 157 162 164 162 153 149 158 152 134 119 112 104 98 90 84 78 71 66 57 51 46 41 35 32 34
80 194 303 105 127 189 180 238 332 284 101 94 104 77 74 31 129 140 153 158 162 167 159 158 156 157 154 153 154 165 170 158 139 125 111 97 89 81 72 67 61 53 43 33 28 24 16 9 6
28 169 89 94 240 113 147 107 288 288 79 85 108 66 86 89 153 182 157 156 162 168 162 159 157 156 152 150 145 153 151 147 135 122 104 88 74 61 53 46 39 27 18 10 4 358 353 347 344
350 108 64 69 259 103 211 154 218 218 101 93 104 125 77 79 202 159 153 155 171 165 161 160 158 158 157 149 157 174 159 147 135 118 97 78 52 30 17 7 2 352 349 345 342 339 336 335 335
20 70 49 319 273 108 238 188 171 127 107 107 92 83 85 128 163 153 157 160 165 164 158 161 162 161 160 168 178 186 177 166 156 139 146 22 355 350 348 349 347 339 332 328 326 326 326 326 326
97 78 199 232 193 331 199 130 147 136 105 55 133 88 135 151 160 162 167 172 161 157 159 166 171 169 173 174 179 187 197 203 233 257 273 309 330 330 331 329 327 320 318 318 319 319 318 317 317
4 94 344 359 330 253 7 89 126 111 86 99 109 140 162 164 157 164 177 181 159 156 172 188 181 184 186 186 192 200 207 228 266 298 314 322 323 314 314 316 317 317 318 319 317 316 316 314 315
258 63 146 174 198 258 82 108 92 111 104 78 82 143 154 161 164 172 174 174 173 172 187 189 191 192 194 201 211 221 237 259 283 307 308 311 315 315 313 310 312 313 317 315 316 316 314 314 314
116 125 200 223 208 172 225 37 129 106 100 73 99 120 150 162 171 179 177 178 184 188 181 181 202 204 208 212 220 233 248 265 281 295 307 316 317 317 316 321 320 321 325 324 322 319 318 316 316
169 167 252 293 198 356 148 86 101 133 84 169 158 146 157 173 181 181 182 191 192 196 207 192 195 217 219 225 227 234 265 294 302 297 308 312 315 316 318 320 320 320 321 322 323 322 321 316 313
191 184 228 263 324 24 31 85 79 107 162 163 147 137 141 151 181 188 188 195 194 203 212 216 223 247 260 260 265 275 284 294 298 303 308 314 317 318 321 321 319 314 316 316 319 319 319 318 317
151 218 61 112 124 169 95 80 120 98 114 129 127 122 118 115 114 149 186 201 216 213 216 224 232 255 267 274 275 277 288 293 302 307 317 320 323 320 318 317 314 312 311 313 314 315 316 316 315
116 188 194 332 89 82 118 112 77 132 136 125 123 124 127 123 142 153 165 168 149 188 220 232 236 238 260 264 269 270 282 296 298 309 319 316 315 317 317 319 322 319 315 312 309 310 311 310 311
130 96 85 161 25 61 124 45 51 134 138 124 121 120 123 109 129 122 130 192 219 209 207 208 234 256 264 272 260 260 278 279 286 298 305 307 311 312 312 313 311 321 320 316 311 309 307 306 309
127 71 129 326 151 32 119 107 333 63 132 114 111 111 112 108 107 112 123 140 165 212 219 226 224 211 214 322 309 280 298 271 298 294 292 299 300 302 305 307 310 311 311 309 311 310 309 309 307
125 161 148 103 19 271 59 72 352 113 130 106 105 102 101 99 99 102 118 151 172 173 183 215 227 227 219 216 231 334 327 243 265 285 281 287 300 309 314 318 315 318 313 314 312 312 314 311 312
185 193 200 124 354 84 77 57 26 65 100 99 97 94 90 87 74 79 93 103 130 199 211 209 216 243 221 181 112 24 258 284 291 297 301 318 314 317 321 313 312 320 331 333 328 329 325 327 330
148 179 205 183 103 69 71 78 54 63 84 87 89 88 84 81 83 88 86 90 94 105 139 206 222 223 204 155 112 181 226 197 284 304 321 336 336 330 322 328 324 324 329 325 320 320 320 321 320
166 177 169 122 128 84 64 72 59 52 66 89 98 93 91 95 93 89 91 94 90 88 87 92 110 136 150 153 134 163 270 312 344 344 322 322 319 322 318 318 316 318 323 329 327 331 330 326 331
196 178 174 140 131 77 119 320 60 70 79 88 86 93 93 96 97 94 94 92 93 90 86 86 87 91 100 120 123 122 104 140 193 7 33 38 35 32 22 8 358 350 346 347 346 342 344 338 332
201 164 144 143 156 173 173 181 190 153 99 83 94 97 98 104 102 101 98 94 91 88 90 89 90 91 91 96 111 107 99 89 70 62 51 42 33 22 16 8 359 355 354 348 350 348 344 341 340
194 106 133 149 128 119 184 151 206 155 177 154 129 113 112 108 108 103 100 97 96 96 93 91 90 89 88 88 86 83 81 76 70 62 46 28 16 7 0 356 352 348 347 346 343 340 340 340 338
142 92 60 87 45 209 183 178 194 186 180 157 147 139 134 126 117 109 105 104 99 98 96 93 91 88 83 77 74 68 61 53 33 17 5 1 357 354 349 347 345 342 339 339 338 337 334 333 332
137 144 133 180 191 240 162 167 217 200 167 161 155 148 142 133 127 120 118 111 105 97 90 84 81 80 68 59 50 39 28 17 9 1 356 350 347 345 345 344 342 341 340 338 336 336 335 334 334
167 166 156 186 171 159 173 212 278 138 148 148 154 148 144 139 133 127 120 115 109 101 90 79 69 65 56 41 33 23 12 3 359 354 350 346 345 345 343 343 341 340 340 341 341 340 340 339 338
175 190 59 102 32 109 139 10 360 72 117 138 147 150 145 141 136 127 121 112 102 94 80 64 46 36 26 16 8 1 358 354 353 350 347 345 344 343 343 342 340 340 340 339 340 340 339 339 339
182 128 102 65 159 173 144 205 205 182 172 161 156 154 151 148 144 138 132 118 100 79 57 33 18 6 5 359 354 354 351 348 346 343 340 340 339 339 338 336 336 338 338 336 338 340 338 336 337
144 178 133 105 305 134 139 243 202 182 180 169 164 162 160 157 153 147 136 122 99 63 29 6 355 352 349 351 347 344 339 338 336 335 335 335 336 335 340 337 339 341 338 339 341 345 342 340 340
273 158 145 124 183 51 121 237 319 176 169 161 162 166 165 161 156 151 143 128 92 15 355 347 345 347 344 342 336 332 331 333 334 332 335 338 337 341 337 339 344 342 342 346 349 352 350 348 347